Starlink 34067

operational
NORAD ID: 64115 Int'l Des: 2025-110 Owner: SPXS Country: US Constellation: starlink
LEOCIRCULAR

Über Starlink 34067

Beschreibung wird geladen...

Live-Position

3D-Globus wird geladen...

Nächste Überflüge

Höhenverlauf

Altitude vs Time

uPlot chart will show altitude changes over time

Zweizeiliger Elementsatz

1 64115U 25110V 25307.58408851 .00051671 00000-0 12926-2 0 9994
2 64115 53.1603 252.6172 0001516 90.4010 269.7168 15.39629337 26576
Epoch: 3. Nov. 2025 • Age: 16 hours

Aktueller Status

Höhe 450.9 km
Geschwindigkeit 7.64 km/s
Subsatellitenpunkt -13.66°S, 60.67°W
Startdatum 23. Mai 2025
Alter 0.4 years
Typ internet

Technische Details

Klassifizierung Payload
Masse 575.00 kg
Trockenmasse 530.00 kg
Gesamtmasse 575.00 kg
Länge 0.30 m
Durchmesser 4.10 m
Spannweite 29.00 m
Form Box + pan
Hersteller SPXS
Bus-Typ Starlink V2MO
Phasenstatus In Orbit
Besitzer/Staat SPXS/US

Große Konstellationen

Loading constellations...